Weather History for Boonville, MO

Change the Weather History Date:

Friday, March 29, 2013

  Actual Average Record
Temperature  
Mean Temperature 51 °F -  
Max Temperature 78 °F 58 °F 98 °F (2014)
Min Temperature 36 °F 38 °F 20 °F (1969)
Degree Days  
Heating Degree Days 14    
Growing Degree Days 1 (Base 50)    
Moisture  
Dew Point 36 °F    
Average Humidity 60    
Maximum Humidity 96    
Minimum Humidity 25    
Precipitation  
Precipitation 0.00 in - - ()
Sea Level Pressure  
Sea Level Pressure 30.18 in    
Wind  
Wind Speed 6 mph (ENE)    
Max Wind Speed 10 mph    
Max Gust Speed -    
Visibility 10 miles    
Events Thunderstorm    
Averages and records for this station are not official NWS values.
T = Trace of Precipitation, MM = Missing Value Source: NWS Daily Summary

Daily Weather History Graph

Daily Weather History Graph

Search for Another Location

Airport:

Trip Planner

Search our weather history database for the weather conditions in past years. The results will help you decide how hot, cold, wet, or windy it might be!

Date:

Astronomy

Mar. 29, 2013 Rise Set
Actual Time 6:59 AM CDT 7:31 PM CDT
Civil Twilight 6:32 AM CDT 7:58 PM CDT
Nautical Twilight 6:01 AM CDT 8:30 PM CDT
Astronomical Twilight 5:29 AM CDT 9:02 PM CDT
Moon 10:30 PM CDT (3/29) 8:10 AM CDT (3/29)
Length of Visible Light 13h 25m
Length of Day
12h 32m
Waning Gibbous, 93% of the Moon is Illuminated
Mar 29
Waning Gibbous
Apr 2
Last Quarter
Apr 10
New
Apr 18
First Quarter
Apr 25
Full

Hourly Weather History & Observations

Time (CDT) Temp. Windchill Dew Point Humidity Pressure Visibility Wind Dir Wind Speed Gust Speed Precip Events Conditions
12:15 AM 47.8 °F - 37.6 °F 68% 30.20 in 10.0 mi NNE 5.8 mph - N/A   Overcast
12:35 AM 47.5 °F - 37.8 °F 69% 30.18 in 10.0 mi NE 6.9 mph - N/A   Overcast
12:55 AM 46.2 °F 44.1 °F 37.0 °F 70% 30.18 in 10.0 mi NE 4.6 mph - N/A   Scattered Clouds
1:15 AM 44.4 °F 40.5 °F 36.9 °F 75% 30.20 in 10.0 mi North 6.9 mph - N/A   Clear
1:35 AM 43.7 °F 40.3 °F 36.7 °F 76% 30.19 in 10.0 mi NNE 5.8 mph - N/A Thunderstorm Scattered Clouds
1:55 AM 43.3 °F 39.9 °F 36.5 °F 77% 30.18 in 10.0 mi NE 5.8 mph - N/A Thunderstorm Scattered Clouds
2:15 AM 43.3 °F 40.7 °F 36.5 °F 77% 30.18 in 10.0 mi ENE 4.6 mph - N/A   Overcast
2:35 AM 43.0 °F 41.3 °F 36.5 °F 78% 30.18 in 10.0 mi NE 3.5 mph - N/A   Overcast
2:55 AM 42.4 °F 40.7 °F 36.5 °F 79% 30.18 in 10.0 mi NNE 3.5 mph - N/A   Mostly Cloudy
3:15 AM 41.5 °F 38.6 °F 36.1 °F 81% 30.18 in 10.0 mi NNE 4.6 mph - N/A   Scattered Clouds
3:35 AM 41.0 °F 38.0 °F 35.8 °F 82% 30.18 in 10.0 mi North 4.6 mph - N/A   Clear
3:55 AM 40.3 °F 35.5 °F 35.4 °F 83% 30.18 in 10.0 mi NNE 6.9 mph - N/A   Clear
4:15 AM 39.6 °F 34.7 °F 35.6 °F 86% 30.18 in 10.0 mi NE 6.9 mph - N/A   Clear
4:35 AM 39.9 °F 35.1 °F 35.8 °F 85% 30.18 in 10.0 mi NE 6.9 mph - N/A   Clear
4:55 AM 39.4 °F 34.5 °F 35.4 °F 86% 30.17 in 10.0 mi NE 6.9 mph - N/A   Clear
5:15 AM 38.8 °F 34.6 °F 35.6 °F 88% 30.17 in 10.0 mi NE 5.8 mph - N/A   Clear
5:35 AM 37.9 °F 34.4 °F 35.8 °F 92% 30.18 in 7.0 mi NNE 4.6 mph - N/A   Clear
5:55 AM 37.6 °F 35.1 °F 35.8 °F 93% 30.18 in 10.0 mi NE 3.5 mph - N/A   Clear
6:15 AM 37.6 °F - 35.8 °F 93% 30.19 in 7.0 mi Calm Calm - N/A   Clear
6:35 AM 37.8 °F 35.3 °F 35.8 °F 93% 30.19 in 7.0 mi NNE 3.5 mph - N/A   Clear
6:55 AM 36.9 °F 34.3 °F 35.4 °F 95% 30.20 in 7.0 mi NNE 3.5 mph - N/A   Clear
7:15 AM 36.3 °F 32.5 °F 34.9 °F 95% 30.20 in 5.0 mi NNE 4.6 mph - N/A   Clear
7:35 AM 36.1 °F 31.4 °F 35.1 °F 96% 30.21 in 5.0 mi NNE 5.8 mph - N/A   Clear
7:55 AM 37.6 °F 33.1 °F 36.1 °F 95% 30.22 in 7.0 mi NNE 5.8 mph - N/A   Clear
8:15 AM 39.0 °F 36.8 °F 36.7 °F 91% 30.22 in 7.0 mi NNE 3.5 mph - N/A   Clear
8:35 AM 40.5 °F - 37.0 °F 88% 30.22 in 10.0 mi Calm Calm - N/A   Clear
8:55 AM 42.4 °F 39.6 °F 37.0 °F 81% 30.22 in 10.0 mi ENE 4.6 mph - N/A   Clear
9:15 AM 44.8 °F 42.4 °F 37.0 °F 74% 30.23 in 10.0 mi East 4.6 mph - N/A   Clear
9:35 AM 46.8 °F - 37.9 °F 71% 30.23 in 10.0 mi ENE 3.5 mph - N/A   Clear
9:55 AM 48.7 °F - 38.7 °F 68% 30.23 in 10.0 mi ENE 3.5 mph - N/A   Clear
10:15 AM 50.5 °F - 39.2 °F 65% 30.23 in 10.0 mi NE 3.5 mph - N/A   Clear
10:35 AM 52.3 °F - 39.7 °F 62% 30.23 in 10.0 mi NNE 3.5 mph - N/A   Clear
10:55 AM 54.3 °F - 39.9 °F 58% 30.23 in 10.0 mi NE 3.5 mph - N/A   Clear
11:15 AM 55.9 °F - 39.7 °F 55% 30.23 in 10.0 mi NNE 6.9 mph - N/A   Clear
11:35 AM 57.2 °F - 40.1 °F 53% 30.23 in 10.0 mi NE 6.9 mph - N/A   Clear
11:55 AM 59.2 °F - 39.6 °F 48% 30.23 in 10.0 mi NE 9.2 mph - N/A   Clear
12:15 PM 60.1 °F - 39.6 °F 47% 30.22 in 10.0 mi ENE 5.8 mph - N/A   Clear
12:35 PM 61.5 °F - 40.1 °F 45% 30.22 in 10.0 mi ENE 4.6 mph - N/A   Clear
12:55 PM 63.0 °F - 39.4 °F 42% 30.21 in 10.0 mi East 6.9 mph - N/A   Clear
1:15 PM 64.0 °F - 37.4 °F 37% 30.20 in 10.0 mi ENE 5.8 mph - N/A   Clear
1:35 PM 64.6 °F - 36.1 °F 35% 30.19 in 10.0 mi North 5.8 mph - N/A   Clear
1:55 PM 64.9 °F - 35.8 °F 34% 30.19 in 10.0 mi NE 9.2 mph - N/A   Clear
2:15 PM 65.7 °F - 34.0 °F 31% 30.18 in 10.0 mi Calm Calm - N/A   Clear
2:35 PM 65.7 °F - 34.7 °F 32% 30.18 in 10.0 mi ENE 6.9 mph - N/A   Clear
2:55 PM 66.2 °F - 35.6 °F 32% 30.17 in 10.0 mi NE 5.8 mph - N/A   Clear
3:15 PM 66.7 °F - 36.1 °F 32% 30.17 in 10.0 mi ESE 4.6 mph - N/A   Clear
3:35 PM 66.9 °F - 36.5 °F 33% 30.16 in 10.0 mi ENE 10.4 mph - N/A   Clear
3:55 PM 66.6 °F - 34.0 °F 30% 30.16 in 10.0 mi NNE 8.1 mph - N/A   Clear
4:15 PM 66.2 °F - 32.0 °F 28% 30.16 in 10.0 mi East 9.2 mph - N/A   Clear
4:35 PM 66.4 °F - 30.4 °F 26% 30.15 in 10.0 mi ENE 9.2 mph - N/A   Clear
4:55 PM 66.4 °F - 30.7 °F 26% 30.15 in 10.0 mi East 10.4 mph - N/A   Clear
5:15 PM 66.2 °F - 30.2 °F 26% 30.15 in 10.0 mi ENE 10.4 mph - N/A   Clear
5:35 PM 65.7 °F - 28.8 °F 25% 30.15 in 10.0 mi ENE 8.1 mph - N/A   Clear
5:55 PM 65.1 °F - 30.6 °F 27% 30.15 in 10.0 mi ENE 8.1 mph - N/A   Clear
6:15 PM 64.2 °F - 32.0 °F 30% 30.15 in 10.0 mi ENE 9.2 mph - N/A   Clear
6:35 PM 63.0 °F - 32.9 °F 32% 30.16 in 10.0 mi East 6.9 mph - N/A   Clear
6:55 PM 61.5 °F - 33.6 °F 35% 30.16 in 10.0 mi East 8.1 mph - N/A   Clear
7:15 PM 59.7 °F - 32.9 °F 36% 30.16 in 10.0 mi East 6.9 mph - N/A   Clear
7:35 PM 58.1 °F - 32.9 °F 39% 30.16 in 10.0 mi ENE 6.9 mph - N/A   Clear
7:55 PM 56.8 °F - 33.1 °F 41% 30.16 in 10.0 mi ENE 4.6 mph - N/A   Clear
8:15 PM 56.3 °F - 33.4 °F 42% 30.16 in 10.0 mi East 6.9 mph - N/A   Clear
8:35 PM 55.4 °F - 33.8 °F 44% 30.16 in 10.0 mi East 6.9 mph - N/A   Clear
8:55 PM 54.5 °F - 34.3 °F 47% 30.17 in 10.0 mi East 6.9 mph - N/A   Clear
9:15 PM 54.1 °F - 35.2 °F 49% 30.16 in 10.0 mi East 6.9 mph - N/A   Clear
9:35 PM 52.3 °F - 36.3 °F 54% 30.17 in 10.0 mi East 5.8 mph - N/A   Clear
9:55 PM 51.3 °F - 36.7 °F 57% 30.17 in 10.0 mi East 6.9 mph - N/A   Clear
10:15 PM 50.7 °F - 36.9 °F 59% 30.17 in 10.0 mi East 6.9 mph - N/A   Clear
10:35 PM 50.4 °F - 36.7 °F 59% 30.17 in 10.0 mi East 9.2 mph - N/A   Clear
10:55 PM 50.5 °F - 37.2 °F 60% 30.16 in 10.0 mi East 8.1 mph - N/A   Clear
11:15 PM 50.4 °F - 37.8 °F 62% 30.16 in 10.0 mi ESE 8.1 mph - N/A   Clear
11:35 PM 49.6 °F - 38.3 °F 65% 30.16 in 10.0 mi East 6.9 mph - N/A   Clear
11:55 PM 48.6 °F - 38.3 °F 68% 30.16 in 10.0 mi East 6.9 mph - N/A   Clear